Home > Weather > Barranquilla > Past weeks

Flag for Colombia Weather for the Past 2 Weeks in Barranquilla, Colombia

Now
88 °F

Sunny.


Feels Like: 98 °F
Forecast: N/A
Wind: 12 mph from Northeast

Location: Barranquilla / Ernestocortissoz

Current Time: Feb 12, 2016 at 4:19:49 PM

Latest Report: Feb 12, 2016 at 4:00 PM


Visibility: 10 mi

Pressure: 29.77 "Hg

Humidity: 66%

Dew point: 75 °F

Location of BarranquillaLocation

Historic Weather in Barranquilla — Graph

°F

Barranquilla Temperature Yesterday

Maximum temperature yesterday: 90 °F (at 10:00 AM)
Minimum temperature yesterday: 79 °F (at 12:00 AM)
Average temperature yesterday: 83 °F

High & Low Weather Summary for the Past Weeks

 TemperatureHumidityPressure
High93 °F (Jan 30, 2:00 PM)100% (Feb 10, 5:00 AM)29.95 "Hg (Feb 10, 5:00 AM)
Low75 °F (Jan 29, 5:00 AM)53% (Feb 7, 12:00 PM)29.75 "Hg (Feb 3, 4:00 PM)
Average82 °F79%29.84 "Hg
* Reported Jan 28 3:00 PM — Feb 12 3:00 PM, Barranquilla, Weather by CustomWeather, © 2016

Note: Actual official high and low records may vary slightly from our data, if they occured in-between our weather recording intervals... More about our weather records

Advertising

Barranquilla Weather History for the Previous 24 Hours

 ConditionsComfort  
Time TempWeatherWind HumidityBarometerVisibility
3:00 PM
Fri, Feb 12
88 °FSunny.17 mph66%29.77 "Hg10 mi
2:00 PM88 °FSunny.14 mph66%29.84 "Hg10 mi
1:00 PM88 °FSunny.13 mph62%29.85 "Hg10 mi
12:00 PM88 °FSunny.10 mph66%29.87 "Hg10 mi
11:00 AM86 °FSunny.15 mph66%29.89 "Hg10 mi
10:00 AM84 °FPassing clouds.18 mph70%29.91 "HgN/A
9:00 AM82 °FPassing clouds.14 mph74%29.90 "HgN/A
8:00 AM81 °FPassing clouds.18 mph79%29.88 "HgN/A
7:00 AM79 °FPassing clouds.16 mph84%29.87 "HgN/A
6:00 AM79 °FClear.17 mph74%29.85 "Hg10 mi
5:00 AM79 °FClear.14 mph79%29.82 "Hg10 mi
4:00 AM79 °FClear.13 mph79%29.78 "Hg10 mi
3:00 AM79 °FClear.13 mph84%29.79 "Hg10 mi
2:00 AM79 °FClear.20 mph84%29.79 "Hg10 mi
1:00 AM79 °FClear.20 mph84%29.81 "Hg10 mi
12:00 AM81 °FClear.18 mph79%29.82 "Hg10 mi
11:46 PM
Thu, Feb 11
81 °FClear.18 mph79%29.82 "Hg10 mi
11:00 PM81 °FClear.20 mph79%29.83 "Hg10 mi
10:50 PM81 °FWarm.20 mph79%29.83 "HgN/A
10:00 PM81 °FClear.21 mph79%29.83 "Hg10 mi
9:00 PM81 °FClear.16 mph74%29.82 "Hg10 mi
8:00 PM81 °FClear.17 mph79%29.80 "Hg10 mi
7:00 PM81 °FClear.15 mph79%29.79 "Hg10 mi
6:00 PM82 °FSunny.10 mph79%29.78 "Hg10 mi
5:00 PM84 °FPassing clouds.14 mph79%29.78 "HgN/A
4:00 PM86 °FPassing clouds.12 mph75%29.78 "HgN/A
Weather by CustomWeather, © 2016

See weather overviewHow to use our weather pages